Regional Weather Roundup
Issued by NWS Albany, NY

Home | Current Version | Previous Version | Text Only | Print | Product List | Glossary On
Versions: 1 2 3 4 5 6 7 8 9 10 11 12 13 14 15 16 17 18 19 20 21 22 23 24 25 26 27
000
ASUS41 KALY 241610
RWRALY

NEW YORK STATE HOURLY WEATHER ROUNDUP
NATIONAL WEATHER SERVICE ALBANY NY
1200 PM EDT THU APR 24 2014

NOTE: "FAIR" INDICATES FEW OR NO CLOUDS BELOW 12,000 FEET WITH NO
SIGNIFICANT WEATHER AND/OR NO OBSTRUCTIONS TO VISIBILITY.

NYZ032-033-038>043-046>054-057>066-NYZ062>081-241700-
EAST


CITY           SKY/WX    TMP DP  RH WIND       PRES   REMARKS
ALBANY         SUNNY     51  14  22 N20G26    29.91F
GLENS FALLS    SUNNY     52  20  28 N17G30    29.90S
POUGHKEEPSIE   SUNNY     55  14  19 NW20G25   29.88F
NEWBURGH       SUNNY     54  16  22 NW23G35   29.90S
MONTGOMERY     SUNNY     54  14  20 NW25G33   29.91S
WHITE PLAINS   SUNNY     54  14  20 NW22G28   29.87S
ISLIP          MOSUNNY   56  13  18 NW26G36   29.83S
NEW YORK CITY  MOSUNNY   53  16  23 NW18G31   29.91S
CENTRAL PARK   SUNNY     55  12  18 NW8G23    29.94S
$$

NYZ005>009-017-018-044>046-055-056-241700-
CENTRAL


CITY           SKY/WX    TMP DP  RH WIND       PRES   REMARKS
FULTON         SUNNY     43  19  38 NW12G22   30.09S
SYRACUSE       MOSUNNY   47  20  34 NW13G25   30.07S
ROME           SUNNY     48  15  26 NW16G23   30.01F
ELMIRA         SUNNY     49  17  28 N15G25    30.09S
BINGHAMTON     SUNNY     44  17  33 N16G26    30.01S
MONTICELLO     SUNNY     48  16  27 NW22G30   29.94F
$$

NYZ026>034-041>043-241700-
NORTH


CITY           SKY/WX    TMP DP  RH WIND       PRES   REMARKS
WATERTOWN      SUNNY     48  17  29 N16       30.06F
FORT DRUM      NOT AVBL
MASSENA        SUNNY     45  23  42 W17       30.03S
SARANAC LAKE   SUNNY     38  19  46 NW12G23   29.92S WCI  30
PLATTSBURGH    SUNNY     48  22  35 NW16G28   29.91S
$$

NYZ001>004-010>016-019>021-241700-
WEST


CITY           SKY/WX    TMP DP  RH WIND       PRES   REMARKS
NIAGARA FALLS  MOSUNNY   48  12  23 NE13      30.15F
BUFFALO        MOSUNNY   48  15  26 N10       30.15F
DUNKIRK        SUNNY     44  20  38 W7        30.18F
JAMESTOWN      SUNNY     43  14  31 NW8       30.14S
WELLSVILLE     SUNNY     46  14  27 NW14G23   30.10S
ROCHESTER      MOSUNNY   47  18  31 N14       30.13F
PENN YAN       SUNNY     46  18  32 NW15G26   30.10S
$$

             KEY
       WCI = WIND CHILL INDEX
       VSB = VISIBILITY
       HX  = HEAT INDEX
$$



USA.gov is the U.S. government's official web portal to all federal, state and local government web resources and services.